Simultaneous Nadir Overpasses (SNOs) Predictions

Prediction of SNOs between NPP and TERRA Satellite Orbit:

Table of predicted SNOs for the next 14.0 days since TLE Epoch: 7/11/2015
Index Date (NPP) Time (NPP) Lat,Lon (NPP) SZA (NPP ) Date (TERRA) Time (TERRA) Lat,Lon (TERRA) SZA (TERRA ) Distance(km) Time Diff (sec)
1 07/11/2015 08:11:45 69.61, 55.21 47.41 07/11/2015 08:12:53 69.51, 57.01 47.28 70.67 68
2 07/11/2015 09:02:13 -68.77,-136.31 133.45 07/11/2015 09:02:34 -68.80,-136.29 133.43 3.17 21
3 07/11/2015 09:52:57 68.65, 31.15 46.44 07/11/2015 09:52:02 68.63, 31.15 46.42 2.42 55
4 07/14/2015 00:28:24 68.85, 172.04 47.00 07/14/2015 00:29:35 68.84, 172.00 46.99 1.73 71
5 07/14/2015 01:19:06 -68.75, -20.51 133.09 07/14/2015 01:19:05 -68.74, -20.49 133.11 1.76 1
6 07/14/2015 02:09:47 68.48, 147.15 46.64 07/14/2015 02:08:34 68.51, 146.87 46.68 12.00 73
7 07/16/2015 16:45:17 68.83, -72.17 47.41 07/16/2015 16:46:05 68.82, -72.15 47.39 2.31 48
8 07/16/2015 17:35:58 -68.68, 95.35 132.74 07/16/2015 17:35:36 -68.66, 95.29 132.76 3.31 22
9 07/16/2015 18:26:25 67.66, -96.04 46.22 07/16/2015 18:25:18 67.70, -98.20 46.31 91.32 67
10 07/19/2015 09:02:08 68.77, 43.68 47.81 07/19/2015 09:02:34 68.78, 43.68 47.81 0.74 26
11 07/19/2015 09:52:50 -68.67,-148.86 132.29 07/19/2015 09:52:04 -68.68,-148.80 132.28 2.86 46
12 07/22/2015 00:28:22 -69.13, -8.34 131.33 07/22/2015 00:29:34 -69.02, -7.78 131.46 25.40 72
13 07/22/2015 01:19:00 68.71, 159.54 48.25 07/22/2015 01:19:04 68.73, 159.50 48.27 2.39 4
14 07/22/2015 02:09:42 -68.60, -33.01 131.85 07/22/2015 02:08:35 -68.58, -33.05 131.87 3.24 67
15 07/24/2015 16:45:09 -68.80, 107.88 131.12 07/24/2015 16:46:07 -68.79, 107.81 131.13 2.86 58
16 07/24/2015 17:35:53 68.70, -84.69 48.79 07/24/2015 17:35:33 68.72, -84.63 48.80 2.54 20
17 07/24/2015 18:26:24 -68.00, 83.53 131.92 07/24/2015 18:25:14 -68.02, 82.15 131.88 57.56 70




NCC Satellite Simultaneous Nadir Overpasses (SNOs) Prediction Service
